Taylorville, IL

6:29 AM CST on November 18, 2017 (GMT -0600)
Taylorville Municipal

Weather History for KTAZ - January, 2014

Change the Weather History Date:

Sunday, January 12, 2014

  Actual Average (KSPI) Record (KSPI)
Temperature  
Mean Temperature 36 °F -  
Max Temperature 46 °F 30 °F 68 °F (1890)
Min Temperature 26 °F 15 °F -20 °F (1918)
Degree Days  
Heating Degree Days 29    
Moisture  
Dew Point 31 °F    
Average Humidity 79    
Maximum Humidity 100    
Minimum Humidity 61    
Precipitation  
Precipitation 0.00 in - - ()
Sea Level Pressure  
Sea Level Pressure 29.81 in    
Wind  
Wind Speed 11 mph (South)    
Max Wind Speed 26 mph    
Max Gust Speed 34 mph    
Visibility 9 miles    
Events      
Averages and records for this station are not official NWS values.
T = Trace of Precipitation, MM = Missing Value Source: NWS Daily Summary

Daily Weather History Graph

Daily Weather History Graph

Search for Another Location

Airport or City:

Trip Planner

Search our weather history database for the weather conditions in past years. The results will help you decide how hot, cold, wet, or windy it might be!

Date:

Astronomy

Jan. 12, 2014 Rise Set
Actual Time 7:17 AM CST 4:54 PM CST
Civil Twilight 6:47 AM CST 5:24 PM CST
Nautical Twilight 6:14 AM CST 5:57 PM CST
Astronomical Twilight 5:41 AM CST 6:29 PM CST
Moon 2:22 PM CST (1/12) 4:15 AM CST (1/12)
Length of Visible Light 10h 37m
Length of Day
9h 37m
Waxing Gibbous, 90% of the Moon is Illuminated
Jan 12
Waxing Gibbous
Jan 15
Full
Jan 23
Last Quarter
Jan 30
New
Feb 6
First Quarter

Hourly Weather History & Observations

Time (CST) Temp. Windchill Dew Point Humidity Pressure Visibility Wind Dir Wind Speed Gust Speed Precip Events Conditions
12:15 AM 32.0 °F 27.5 °F 30.2 °F 93% 29.89 in 10.0 mi WNW 4.6 mph - N/A   Overcast
12:35 AM 32.0 °F 24.8 °F 30.2 °F 93% 29.89 in 10.0 mi WNW 8.1 mph - N/A   Overcast
12:55 AM 32.0 °F 24.2 °F 28.4 °F 87% 29.90 in 10.0 mi WNW 9.2 mph - N/A   Overcast
1:15 AM 30.2 °F 23.4 °F 28.4 °F 93% 29.90 in 10.0 mi West 6.9 mph - N/A   Scattered Clouds
1:35 AM 30.2 °F 22.6 °F 28.4 °F 93% 29.90 in 10.0 mi West 8.1 mph - N/A   Scattered Clouds
1:55 AM 30.2 °F 24.3 °F 28.4 °F 93% 29.92 in 10.0 mi WNW 5.8 mph - N/A   Scattered Clouds
2:15 AM 30.2 °F 24.3 °F 28.4 °F 93% 29.92 in 10.0 mi West 5.8 mph - N/A   Clear
2:35 AM 30.2 °F - 26.6 °F 86% 29.93 in 10.0 mi Calm Calm - N/A   Clear
2:55 AM 28.4 °F - 26.6 °F 93% 29.93 in 10.0 mi Calm Calm - N/A   Clear
3:15 AM 28.4 °F - 26.6 °F 93% 29.92 in 7.0 mi Calm Calm - N/A   Clear
3:35 AM 26.6 °F 22.6 °F 26.6 °F 100% 29.91 in 7.0 mi SE 3.5 mph - N/A   Clear
3:55 AM 26.6 °F 22.6 °F 26.6 °F 100% 29.92 in 7.0 mi South 3.5 mph - N/A   Clear
4:15 AM 26.6 °F 22.6 °F 26.6 °F 100% 29.92 in 7.0 mi South 3.5 mph - N/A   Clear
4:35 AM 26.6 °F 22.6 °F 26.6 °F 100% 29.92 in 7.0 mi South 3.5 mph - N/A   Clear
4:55 AM 26.6 °F 21.2 °F 26.6 °F 100% 29.93 in 7.0 mi South 4.6 mph - N/A   Clear
5:15 AM 26.6 °F 21.2 °F 26.6 °F 100% 29.93 in 7.0 mi South 4.6 mph - N/A   Clear
5:35 AM 28.4 °F 22.2 °F 26.6 °F 93% 29.93 in 7.0 mi South 5.8 mph - N/A   Clear
5:55 AM 26.6 °F 19.1 °F 26.6 °F 100% 29.93 in 7.0 mi SSE 6.9 mph - N/A   Clear
6:15 AM 28.4 °F 20.4 °F 26.6 °F 93% 29.93 in 7.0 mi SSE 8.1 mph - N/A   Clear
6:35 AM 28.4 °F 20.4 °F 26.6 °F 93% 29.93 in 7.0 mi SSE 8.1 mph - N/A   Clear
6:55 AM 28.4 °F 19.7 °F 28.4 °F 100% 29.93 in 7.0 mi SSE 9.2 mph - N/A   Clear
7:15 AM 30.2 °F 22.6 °F 28.4 °F 93% 29.93 in 7.0 mi SSE 8.1 mph - N/A   Clear
7:35 AM 30.2 °F 22.6 °F 28.4 °F 93% 29.93 in 7.0 mi South 8.1 mph - N/A   Clear
7:55 AM 30.2 °F 21.9 °F 28.4 °F 93% 29.93 in 10.0 mi South 9.2 mph - N/A   Clear
8:15 AM 32.0 °F 22.5 °F 30.2 °F 93% 29.93 in 10.0 mi South 12.7 mph - N/A   Clear
8:35 AM 32.0 °F 23.0 °F 30.2 °F 93% 29.93 in 10.0 mi South 11.5 mph - N/A   Clear
8:55 AM 33.8 °F 24.8 °F 30.2 °F 87% 29.93 in 10.0 mi South 12.7 mph - N/A   Clear
9:15 AM 35.6 °F 25.5 °F 32.0 °F 87% 29.92 in 10.0 mi South 17.3 mph 23.0 mph N/A   Clear
9:35 AM 35.6 °F 26.2 °F 32.0 °F 87% 29.92 in 10.0 mi South 15.0 mph 20.7 mph N/A   Clear
9:55 AM 35.6 °F 26.6 °F 32.0 °F 87% 29.93 in 10.0 mi South 13.8 mph 19.6 mph N/A   Clear
10:15 AM 37.4 °F 27.8 °F 32.0 °F 81% 29.93 in 10.0 mi South 17.3 mph - N/A   Clear
10:35 AM 37.4 °F 27.2 °F 32.0 °F 81% 29.91 in 10.0 mi South 19.6 mph 24.2 mph N/A   Clear
10:55 AM 37.4 °F 27.5 °F 32.0 °F 81% 29.89 in 10.0 mi South 18.4 mph 27.6 mph N/A   Clear
11:15 AM 39.2 °F 29.3 °F 32.0 °F 75% 29.86 in 10.0 mi South 20.7 mph 28.8 mph N/A   Clear
11:35 AM 41.0 °F 31.6 °F 32.0 °F 70% 29.84 in 10.0 mi South 20.7 mph 29.9 mph N/A   Clear
11:55 AM 41.0 °F 31.6 °F 32.0 °F 70% 29.83 in 10.0 mi South 20.7 mph 32.2 mph N/A   Clear
12:15 PM 41.0 °F 30.5 °F 32.0 °F 70% 29.81 in 10.0 mi South 26.5 mph 34.5 mph N/A   Clear
12:35 PM 42.8 °F 34.0 °F 32.0 °F 66% 29.79 in 10.0 mi South 20.7 mph 31.1 mph N/A   Clear
12:55 PM 42.8 °F 34.5 °F 32.0 °F 66% 29.78 in 10.0 mi South 18.4 mph 31.1 mph N/A   Clear
1:15 PM 44.6 °F 36.6 °F 33.8 °F 66% 29.76 in 10.0 mi South 19.6 mph 28.8 mph N/A   Clear
1:35 PM 44.6 °F 36.4 °F 33.8 °F 66% 29.75 in 10.0 mi South 20.7 mph 28.8 mph N/A   Clear
1:55 PM 44.6 °F 35.9 °F 33.8 °F 66% 29.74 in 10.0 mi South 23.0 mph 33.4 mph N/A   Clear
2:15 PM 44.6 °F 36.4 °F 33.8 °F 66% 29.73 in 10.0 mi SSE 20.7 mph 27.6 mph N/A   Clear
2:35 PM 46.4 °F 38.5 °F 35.6 °F 66% 29.73 in 10.0 mi SSE 21.9 mph 28.8 mph N/A   Clear
2:55 PM 46.4 °F 39.2 °F 33.8 °F 62% 29.72 in 10.0 mi SSE 18.4 mph 25.3 mph N/A   Clear
3:15 PM 46.4 °F 39.2 °F 33.8 °F 62% 29.72 in 10.0 mi SSE 18.4 mph 25.3 mph N/A   Clear
3:35 PM 46.4 °F 39.2 °F 33.8 °F 62% 29.71 in 10.0 mi South 18.4 mph 25.3 mph N/A   Clear
3:55 PM 46.4 °F 38.3 °F 33.8 °F 62% 29.70 in 10.0 mi SSE 23.0 mph 29.9 mph N/A   Clear
4:15 PM 44.6 °F 35.5 °F 33.8 °F 66% 29.69 in 10.0 mi SSE 25.3 mph 29.9 mph N/A   Clear
4:35 PM 44.6 °F 36.4 °F 33.8 °F 66% 29.69 in 10.0 mi SSE 20.7 mph 29.9 mph N/A   Clear
4:55 PM 44.6 °F 36.4 °F 32.0 °F 61% 29.68 in 10.0 mi SSE 20.7 mph 25.3 mph N/A   Clear
5:15 PM 42.8 °F 33.3 °F 32.0 °F 66% 29.68 in 10.0 mi SSE 24.2 mph 28.8 mph N/A   Clear
5:35 PM 42.8 °F 33.3 °F 32.0 °F 66% 29.69 in 10.0 mi SSE 24.2 mph 28.8 mph N/A   Clear
5:55 PM 42.8 °F 33.5 °F 32.0 °F 66% 29.68 in 10.0 mi SSE 23.0 mph 33.4 mph N/A   Clear
6:15 PM 42.8 °F 34.3 °F 32.0 °F 66% 29.70 in 10.0 mi South 19.6 mph 28.8 mph N/A   Clear
6:35 PM 42.8 °F 35.4 °F 32.0 °F 66% 29.70 in 10.0 mi South 15.0 mph - N/A   Clear
6:55 PM 42.8 °F 34.0 °F 32.0 °F 66% 29.71 in 10.0 mi South 20.7 mph 28.8 mph N/A   Clear
7:15 PM 42.8 °F 33.8 °F 32.0 °F 66% 29.72 in 10.0 mi South 21.9 mph 26.5 mph N/A   Clear
7:35 PM 42.8 °F 34.0 °F 33.8 °F 70% 29.72 in 10.0 mi South 20.7 mph 26.5 mph N/A   Clear
7:55 PM 42.8 °F 34.3 °F 33.8 °F 70% 29.72 in 10.0 mi South 19.6 mph 28.8 mph N/A   Clear
8:15 PM 42.8 °F 34.3 °F 33.8 °F 70% 29.73 in 10.0 mi South 19.6 mph 25.3 mph N/A   Clear
8:35 PM 42.8 °F 34.0 °F 33.8 °F 70% 29.73 in 10.0 mi South 20.7 mph 26.5 mph N/A   Clear
8:55 PM 42.8 °F 34.0 °F 33.8 °F 70% 29.72 in 10.0 mi South 20.7 mph 27.6 mph N/A   Clear
9:15 PM 42.8 °F 34.0 °F 33.8 °F 70% 29.72 in 10.0 mi South 20.7 mph 25.3 mph N/A   Clear
9:35 PM 42.8 °F 34.5 °F 33.8 °F 70% 29.71 in 10.0 mi South 18.4 mph 23.0 mph N/A   Clear
9:55 PM 42.8 °F 34.3 °F 33.8 °F 70% 29.71 in 10.0 mi South 19.6 mph 25.3 mph N/A   Clear
10:15 PM 41.0 °F 32.2 °F 33.8 °F 76% 29.70 in 10.0 mi South 18.4 mph 23.0 mph N/A   Clear
10:35 PM 41.0 °F 32.2 °F 32.0 °F 70% 29.69 in 10.0 mi South 18.4 mph 24.2 mph N/A   Clear
10:55 PM 41.0 °F 32.5 °F 32.0 °F 70% 29.68 in 10.0 mi South 17.3 mph 24.2 mph N/A   Clear
11:15 PM 41.0 °F 32.5 °F 32.0 °F 70% 29.67 in 10.0 mi South 17.3 mph 26.5 mph N/A   Clear
11:35 PM 41.0 °F 32.2 °F 32.0 °F 70% 29.67 in 10.0 mi South 18.4 mph 23.0 mph N/A   Clear
11:55 PM 41.0 °F 31.9 °F 32.0 °F 70% 29.66 in 10.0 mi South 19.6 mph 25.3 mph N/A   Clear